Location: ?ernice
(48.8383°N, 14.3803°E)
Time: 17:03:07
(UTC+00:00)

Resurs 1-4 Rocket - Pass Details

Date: 23 May 2024
Orbit: 798 x 814 km, 98.7° (Epoch: 13 June)

Event Time Altitude Azimuth Distance (km) Brightness Sun altitude
Rises 02:05:00 0° 8° (N) 3,319 6.3 -9.1°
Reaches altitude 10° 02:07:30 10° 360° (N) 2,384 5.3 -8.9°
Maximum altitude 02:12:13 35° 296° (WNW) 1,272 3.0 -8.3°
Drops below altitude 10° 02:16:55 10° 232° (SW) 2,370 3.9 -7.8°
Enters shadow 02:17:04 - 231° (SW) 2,424 3.9 -7.8°
